When you browse on this site, cookies collect data to enhance your experience and personalize the content and advertising you see.
Visit our Privacy Policy to learn more. By continuing to use the site, you agree to this use of cookies and data.
  • în România
  • Lista ţărilor
  • Pe 7 zile
  • Temperatura apei
  • Hartă satelitară
  • Meteo pe hartă
  • Widget-uri
  • user-avatar
    Intrare

    Meteo pe oră la Arnara

    Astăzi, 21 Iulie, Duminică

    Timp Temperatura Precipitaţii Vânt Presiune Umiditate
    00:00 +24°C° 0 mm 1 m/s 748 mmHg 69%
    01:00 +24°C° 0 mm 1 m/s 748 mmHg 69%
    02:00 +23°C° 0 mm 1 m/s 748 mmHg 69%
    03:00 +23°C° 0 mm 1 m/s 748 mmHg 70%
    04:00 +23°C° 0 mm 1 m/s 748 mmHg 70%
    05:00 +24°C° 0 mm 1 m/s 748 mmHg 66%
    06:00 +24°C° 0 mm 0 m/s 748 mmHg 63%
    07:00 +27°C° 0 mm 1 m/s 749 mmHg 58%
    08:00 +29°C° 0 mm 1 m/s 749 mmHg 53%
    09:00 +31°C° 0 mm 1 m/s 749 mmHg 47%
    10:00 +33°C° 0 mm 1 m/s 749 mmHg 41%
    11:00 +35°C° 0 mm 2 m/s 749 mmHg 39%
    12:00 +36°C° 0 mm 2 m/s 749 mmHg 36%
    13:00 +36°C° 0 mm 2 m/s 749 mmHg 34%
    14:00 +36°C° 0 mm 2 m/s 749 mmHg 34%
    15:00 +36°C° 0 mm 3 m/s 749 mmHg 34%
    16:00 +35°C° 0 mm 3 m/s 749 mmHg 34%
    17:00 +34°C° 0 mm 3 m/s 748 mmHg 39%
    18:00 +31°C° 0 mm 2 m/s 748 mmHg 44%
    19:00 +29°C° 0 mm 1 m/s 748 mmHg 49%
    20:00 +28°C° 0 mm 1 m/s 748 mmHg 50%
    21:00 +27°C° 0 mm 1 m/s 749 mmHg 51%
    22:00 +26°C° 0 mm 1 m/s 749 mmHg 52%
    23:00 +25°C° 0 mm 1 m/s 749 mmHg 52%

    Mâine, 22 Iulie, Luni

    Timp Temperatura Precipitaţii Vânt Presiune Umiditate
    00:00 +25°C° 0 mm 1 m/s 749 mmHg 52%
    01:00 +25°C° 0 mm 1 m/s 749 mmHg 52%
    02:00 +25°C° 0 mm 1 m/s 749 mmHg 52%
    03:00 +24°C° 0 mm 1 m/s 749 mmHg 52%
    04:00 +24°C° 0 mm 1 m/s 748 mmHg 53%
    05:00 +26°C° 0 mm 1 m/s 748 mmHg 51%
    06:00 +27°C° 0 mm 1 m/s 749 mmHg 50%
    07:00 +26°C° 0 mm 0 m/s 749 mmHg 49%
    08:00 +29°C° 0 mm 0 m/s 749 mmHg 43%
    09:00 +33°C° 0 mm 1 m/s 749 mmHg 38%
    10:00 +35°C° 0 mm 1 m/s 749 mmHg 32%
    11:00 +36°C° 0 mm 1 m/s 749 mmHg 31%
    12:00 +36°C° 0 mm 1 m/s 749 mmHg 30%
    13:00 +38°C° 0 mm 2 m/s 749 mmHg 29%
    14:00 +37°C° 0 mm 2 m/s 748 mmHg 30%
    15:00 +37°C° 0 mm 2 m/s 748 mmHg 31%
    16:00 +37°C° 0 mm 3 m/s 748 mmHg 32%
    17:00 +35°C° 0 mm 2 m/s 748 mmHg 37%
    18:00 +32°C° 0 mm 2 m/s 748 mmHg 42%
    19:00 +30°C° 0 mm 1 m/s 748 mmHg 47%
    20:00 +29°C° 0 mm 1 m/s 748 mmHg 49%
    21:00 +28°C° 0 mm 1 m/s 748 mmHg 51%
    22:00 +27°C° 0 mm 1 m/s 748 mmHg 53%
    23:00 +26°C° 0 mm 1 m/s 748 mmHg 55%

    Poimâine, 23 Iulie, Marţi

    Timp Temperatura Precipitaţii Vânt Presiune Umiditate
    00:00 +26°C° 0 mm 1 m/s 748 mmHg 57%
    01:00 +26°C° 0 mm 1 m/s 747 mmHg 60%
    02:00 +25°C° 0 mm 1 m/s 747 mmHg 61%
    03:00 +25°C° 0 mm 1 m/s 747 mmHg 63%
    04:00 +25°C° 0 mm 1 m/s 747 mmHg 65%
    05:00 +26°C° 0 mm 1 m/s 747 mmHg 62%
    06:00 +27°C° 0 mm 1 m/s 747 mmHg 60%
    07:00 +29°C° 0 mm 1 m/s 747 mmHg 58%
    08:00 +31°C° 0 mm 1 m/s 747 mmHg 51%
    09:00 +33°C° 0 mm 1 m/s 747 mmHg 45%
    10:00 +35°C° 0 mm 1 m/s 748 mmHg 38%
    11:00 +36°C° 0 mm 1 m/s 747 mmHg 36%
    12:00 +37°C° 0 mm 1 m/s 747 mmHg 34%
    13:00 +37°C° 0 mm 1 m/s 747 mmHg 31%
    14:00 +38°C° 0 mm 2 m/s 747 mmHg 32%
    15:00 +38°C° 0 mm 2 m/s 746 mmHg 33%
    16:00 +37°C° 0 mm 3 m/s 746 mmHg 34%
    17:00 +35°C° 0 mm 2 m/s 746 mmHg 39%
    18:00 +34°C° 0 mm 2 m/s 746 mmHg 45%
    19:00 +31°C° 0 mm 1 m/s 746 mmHg 50%
    20:00 +30°C° 0 mm 1 m/s 746 mmHg 51%
    21:00 +28°C° 0 mm 1 m/s 746 mmHg 52%
    22:00 +27°C° 0 mm 1 m/s 746 mmHg 54%
    23:00 +27°C° 0 mm 1 m/s 746 mmHg 54%

    24 Iulie, Miercuri

    Timp Temperatura Precipitaţii Vânt Presiune Umiditate
    00:00 +26°C° 0 mm 1 m/s 746 mmHg 54%
    01:00 +26°C° 0 mm 1 m/s 746 mmHg 54%
    02:00 +25°C° 0 mm 1 m/s 746 mmHg 53%
    03:00 +25°C° 0 mm 1 m/s 745 mmHg 53%
    04:00 +24°C° 0 mm 1 m/s 745 mmHg 52%
    05:00 +26°C° 0 mm 1 m/s 745 mmHg 50%
    06:00 +27°C° 0 mm 1 m/s 745 mmHg 48%
    07:00 +28°C° 0 mm 1 m/s 745 mmHg 45%
    08:00 +30°C° 0 mm 1 m/s 746 mmHg 41%
    09:00 +33°C° 0 mm 1 m/s 746 mmHg 36%
    10:00 +35°C° 0 mm 1 m/s 746 mmHg 31%
    11:00 +36°C° 0 mm 1 m/s 746 mmHg 30%
    12:00 +37°C° 0 mm 1 m/s 746 mmHg 28%
    13:00 +39°C° 0 mm 1 m/s 745 mmHg 26%
    14:00 +38°C° 0 mm 2 m/s 745 mmHg 28%
    15:00 +38°C° 0 mm 3 m/s 745 mmHg 29%
    16:00 +37°C° 0 mm 3 m/s 745 mmHg 30%
    17:00 +35°C° 0 mm 2 m/s 745 mmHg 36%
    18:00 +32°C° 0 mm 2 m/s 744 mmHg 42%
    19:00 +30°C° 0 mm 1 m/s 744 mmHg 48%
    20:00 +29°C° 0 mm 1 m/s 745 mmHg 50%
    21:00 +28°C° 0 mm 1 m/s 745 mmHg 53%
    22:00 +26°C° 0 mm 1 m/s 745 mmHg 55%
    23:00 +26°C° 0 mm 1 m/s 745 mmHg 55%

    25 Iulie, Joi

    Timp Temperatura Precipitaţii Vânt Presiune Umiditate
    00:00 +26°C° 0 mm 1 m/s 745 mmHg 56%
    01:00 +25°C° 0 mm 1 m/s 745 mmHg 56%
    02:00 +25°C° 0 mm 1 m/s 745 mmHg 56%
    03:00 +24°C° 0 mm 1 m/s 745 mmHg 56%
    04:00 +24°C° 0 mm 1 m/s 744 mmHg 56%
    05:00 +26°C° 0 mm 1 m/s 745 mmHg 53%
    06:00 +27°C° 0 mm 1 m/s 745 mmHg 50%
    07:00 +28°C° 0 mm 1 m/s 745 mmHg 47%
    08:00 +31°C° 0 mm 1 m/s 745 mmHg 42%
    09:00 +33°C° 0 mm 1 m/s 745 mmHg 37%
    10:00 +35°C° 0 mm 1 m/s 745 mmHg 33%
    11:00 +35°C° 0 mm 1 m/s 745 mmHg 31%
    12:00 +37°C° 0 mm 2 m/s 745 mmHg 30%
    13:00 +38°C° 0 mm 2 m/s 745 mmHg 29%
    14:00 +37°C° 0 mm 2 m/s 745 mmHg 31%
    15:00 +37°C° 0 mm 3 m/s 744 mmHg 32%
    16:00 +36°C° 0 mm 4 m/s 744 mmHg 34%
    17:00 +34°C° 0 mm 3 m/s 744 mmHg 40%
    18:00 +32°C° 0 mm 2 m/s 744 mmHg 45%
    19:00 +30°C° 0 mm 1 m/s 744 mmHg 50%
    20:00 +29°C° 0 mm 1 m/s 744 mmHg 53%
    21:00 +28°C° 0 mm 1 m/s 744 mmHg 56%
    22:00 +26°C° 0 mm 1 m/s 745 mmHg 59%
    23:00 +26°C° 0 mm 1 m/s 745 mmHg 60%

    26 Iulie, Vineri

    Timp Temperatura Precipitaţii Vânt Presiune Umiditate
    00:00 +26°C° 0 mm 1 m/s 745 mmHg 61%
    01:00 +25°C° 0 mm 1 m/s 745 mmHg 62%
    02:00 +23°C° 0 mm 0 m/s 744 mmHg 63%
    03:00 +23°C° 0 mm 0 m/s 744 mmHg 64%
    04:00 +23°C° 0 mm 0 m/s 744 mmHg 65%
    05:00 +24°C° 0 mm 0 m/s 744 mmHg 61%
    06:00 +25°C° 0 mm 0 m/s 744 mmHg 57%
    07:00 +27°C° 0 mm 0 m/s 744 mmHg 54%
    08:00 +29°C° 0 mm 0 m/s 744 mmHg 48%
    09:00 +33°C° 0 mm 1 m/s 744 mmHg 43%
    10:00 +34°C° 0 mm 1 m/s 744 mmHg 37%
    11:00 +36°C° 0 mm 2 m/s 744 mmHg 35%
    12:00 +37°C° 0 mm 2 m/s 744 mmHg 34%
    13:00 +38°C° 0 mm 3 m/s 744 mmHg 32%
    14:00 +37°C° 0 mm 3 m/s 744 mmHg 34%
    15:00 +36°C° 0 mm 3 m/s 743 mmHg 36%
    16:00 +36°C° 0 mm 4 m/s 743 mmHg 38%
    17:00 +34°C° 0 mm 3 m/s 743 mmHg 43%
    18:00 +32°C° 0 mm 2 m/s 743 mmHg 48%
    19:00 +30°C° 0 mm 1 m/s 743 mmHg 52%
    20:00 +29°C° 0 mm 1 m/s 743 mmHg 55%
    21:00 +28°C° 0 mm 1 m/s 743 mmHg 58%
    22:00 +27°C° 0 mm 1 m/s 744 mmHg 61%
    23:00 +27°C° 0 mm 1 m/s 744 mmHg 61%
    Arată mai mult